This demonstration page uses our WeatherBlox Daily Observations layout. Learn more.

Left ArrowRight Arrow

39.92423, -83.80882

Hourly Observations for December 24, 2015

Temp ( °F °C ) Dew Point ( °F °C ) Humidity (%) Winds ( mph kmh ) Pressure ( in mb ) Visibility ( mi km ) Precip ( " mm )
12:56 am 00:56 Clear 57 13.8 55 12.7 93 93 S 15 24 29.58 1002 10 16.0934 0 0
1:56 am 01:56 Clear 56 13.3 55 12.7 96 96 S 13 20 29.62 1003 10 16.0934 0 0
2:56 am 02:56 Clear 56 13.3 55 12.7 96 96 S 12 19 29.65 1004 10 16.0934 0 0
3:56 am 03:56 Clear 55 12.7 54 12.2 97 97 SW 13 20 29.69 1005 10 16.0934 0 0
4:56 am 04:56 Clear 55 12.7 51 10.5 87 87 WSW 15 24 29.75 1007 10 16.0934 0 0
5:56 am 05:56 Mostly Cloudy 50 10 44 6.6 80 80 WNW 18 30 29.83 1010 10 16.0934 0 0
6:16 am 06:16 Partly Cloudy 48 9 43 6 82 82 W 16 26 29.88 1012 10 16.0934 0 0
6:56 am 06:56 Clear 45 7.2 41 5 86 86 W 13 20 29.91 1013 10 16.0934 0 0
7:56 am 07:56 Sunny 43 6.1 39 3.8 85 85 W 9 15 29.97 1015 10 16.0934 0 0
8:56 am 08:56 Sunny 42 5.5 38 3.3 86 86 W 6 9 30.02 1017 10 16.0934 0 0
9:56 am 09:56 Sunny 45 7.2 39 3.8 79 79 S 3 6 30.04 1017 10 16.0934 0 0
10:56 am 10:56 Sunny 48 8.8 41 5 77 77 S 7 11 30.06 1018 10 16.0934 0 0
11:56 am 11:56 Sunny 51 10.5 42 5.5 71 71 S 8 13 30.06 1018 10 16.0934 0 0
12:56 pm 12:56 Sunny 53 11.6 39 3.8 59 59 VRB 6 9 30.04 1017 10 16.0934 0 0
1:56 pm 13:56 Sunny 54 12.2 36 2.2 51 51 W 7 11 30.04 1017 10 16.0934 0 0
2:56 pm 14:56 Sunny 54 12.2 38 3.3 55 55 NNW 6 9 30.05 1018 10 16.0934 0 0
3:56 pm 15:56 Sunny 55 12.7 36 2.2 49 49 Calm 30.06 1018 10 16.0934 0 0
4:56 pm 16:56 Sunny 55 12.7 38 3.3 53 53 Calm 30.06 1018 10 16.0934 0 0
5:56 pm 17:56 Clear 48 8.8 37 2.7 66 66 SE 3 6 30.07 1018 10 16.0934 0 0
6:56 pm 18:56 Clear 44 6.6 37 2.7 76 76 E 6 9 30.08 1019 10 16.0934 0 0
7:56 pm 19:56 Clear 40 4.4 38 3.3 93 93 E 7 11 30.07 1018 10 16.0934 0 0
8:56 pm 20:56 Clear 45 7.2 39 3.8 79 79 SE 8 13 30.07 1018 10 16.0934 0 0
9:56 pm 21:56 Cloudy 49 9.4 43 6.1 80 80 SE 12 19 30.09 1019 10 16.0934 0 0
10:56 pm 22:56 Partly Cloudy 50 10 45 7.2 83 83 SSE 6 9 30.09 1019 10 16.0934 0 0
11:56 pm 23:56 Mostly Cloudy 53 11.6 48 8.8 83 83 SSE 7 11 30.07 1018 10 16.0934 0 0

Powered by AerisWeather